{"data":{"norad_id":61874,"intl_designator":"2024-204A","name":"STARLINK-11402 [DTC]","alt_names":[],"object_type":"PAYLOAD","status":"ACTIVE","operator":null,"country":"US","launch_date":"2024-11-09","launch_site_code":"AFWTR","launch_vehicle":null,"mission":null,"orbit_class":"UNKNOWN","rcs_meters":null,"size_class":null,"mass_kg":null,"dimensions":null,"purposes":["comms"],"wikipedia_slug":null,"has_3d_model":false,"image_url":null,"decayed_at":null,"tle_current":{"epoch":"2026-05-24T22:12:11.877408Z","epoch_age_seconds":74813,"freshness":"FRESH","line1":"1 61874U 24204A   26144.92513747  .00000805  00000+0  11500-4 0  9996","line2":"2 61874  53.1592 340.8091 0001032  89.8012 270.3124 15.69710782 89475","mean_motion":15.69710782,"eccentricity":0.0001032,"inclination_deg":53.1592,"raan_deg":340.8091,"arg_perigee_deg":89.8012,"mean_anomaly_deg":270.3124,"bstar":1.15e-5,"rev_number":8947,"period_min":91.736644515193,"perigee_km":359.02916532794,"apogee_km":360.41985994415,"semimajor_km":6737.861512636,"source":"CELESTRAK","updated_at":"2026-05-25T13:38:19.473590Z"}}}